When you browse on this site, cookies collect data to enhance your experience and personalize the content and advertising you see.
Visit our Privacy Policy to learn more. By continuing to use the site, you agree to this use of cookies and data.
  • In Österreich
  • Länderverzeichnis
  • Für 7 Tage
  • Wassertemperatur
  • Wetterkarte
  • News
  • Widgets
  • user-avatar
    Anmelden

    Stündliche Wetter Tulancingo

    Heute, 17 November, Sonntag

    Zeit Temperatur Niederschläge Wind Luftdruck Luftfeuchtigkeit
    00:00 +10°C° 0 mm 0 m/S 586 mmHg 87%
    01:00 +11°C° 0 mm 1 m/S 586 mmHg 86%
    02:00 +11°C° 0 mm 1 m/S 585 mmHg 84%
    03:00 +11°C° 0 mm 1 m/S 585 mmHg 83%
    04:00 +11°C° 0 mm 1 m/S 585 mmHg 81%
    05:00 +11°C° 0 mm 1 m/S 585 mmHg 80%
    06:00 +13°C° 0 mm 1 m/S 587 mmHg 72%
    07:00 +15°C° 0 mm 1 m/S 588 mmHg 65%
    08:00 +17°C° 0 mm 0 m/S 589 mmHg 57%
    09:00 +20°C° 0 mm 1 m/S 589 mmHg 54%
    10:00 +20°C° 0 mm 2 m/S 589 mmHg 51%
    11:00 +21°C° 0 mm 3 m/S 590 mmHg 48%
    12:00 +20°C° 0 mm 3 m/S 589 mmHg 52%
    13:00 +20°C° 0 mm 3 m/S 588 mmHg 55%
    14:00 +20°C° 0 mm 4 m/S 587 mmHg 59%
    15:00 +18°C° 0 mm 3 m/S 587 mmHg 68%
    16:00 +16°C° 0 mm 2 m/S 586 mmHg 76%
    17:00 +14°C° 0 mm 1 m/S 586 mmHg 85%
    18:00 +14°C° 0 mm 1 m/S 586 mmHg 83%
    19:00 +13°C° 0 mm 1 m/S 586 mmHg 81%
    20:00 +13°C° 0 mm 1 m/S 587 mmHg 79%
    21:00 +13°C° 0 mm 1 m/S 586 mmHg 78%
    22:00 +12°C° 0 mm 1 m/S 586 mmHg 76%
    23:00 +12°C° 0 mm 1 m/S 586 mmHg 75%

    Morgen, 18 November, Montag

    Zeit Temperatur Niederschläge Wind Luftdruck Luftfeuchtigkeit
    00:00 +12°C° 0 mm 1 m/S 586 mmHg 74%
    01:00 +12°C° 0 mm 1 m/S 585 mmHg 72%
    02:00 +12°C° 0 mm 1 m/S 585 mmHg 71%
    03:00 +12°C° 0 mm 1 m/S 585 mmHg 71%
    04:00 +11°C° 0 mm 1 m/S 585 mmHg 71%
    05:00 +11°C° 0 mm 1 m/S 585 mmHg 70%
    06:00 +13°C° 0 mm 1 m/S 586 mmHg 64%
    07:00 +14°C° 0 mm 0 m/S 587 mmHg 58%
    08:00 +16°C° 0 mm 0 m/S 589 mmHg 52%
    09:00 +19°C° 0 mm 1 m/S 589 mmHg 51%
    10:00 +20°C° 0 mm 1 m/S 589 mmHg 50%
    11:00 +20°C° 0 mm 2 m/S 589 mmHg 49%
    12:00 +19°C° 0 mm 2 m/S 588 mmHg 55%
    13:00 +19°C° 0 mm 2 m/S 587 mmHg 60%
    14:00 +18°C° 0 mm 3 m/S 587 mmHg 66%
    15:00 +17°C° 0 mm 2 m/S 586 mmHg 75%
    16:00 +15°C° 0 mm 2 m/S 586 mmHg 84%
    17:00 +14°C° 0 mm 1 m/S 585 mmHg 93%
    18:00 +14°C° 0.1 mm 1 m/S 586 mmHg 89%
    19:00 +14°C° 0.1 mm 1 m/S 586 mmHg 86%
    20:00 +14°C° 0.1 mm 1 m/S 587 mmHg 83%
    21:00 +14°C° 0 mm 1 m/S 586 mmHg 81%
    22:00 +14°C° 0 mm 1 m/S 586 mmHg 78%
    23:00 +14°C° 0 mm 1 m/S 586 mmHg 76%

    übermorgen, 19 November, Dienstag

    Zeit Temperatur Niederschläge Wind Luftdruck Luftfeuchtigkeit
    00:00 +13°C° 0 mm 1 m/S 586 mmHg 77%
    01:00 +13°C° 0 mm 1 m/S 585 mmHg 77%
    02:00 +12°C° 0 mm 1 m/S 585 mmHg 78%
    03:00 +11°C° 0 mm 0 m/S 585 mmHg 79%
    04:00 +11°C° 0 mm 0 m/S 585 mmHg 80%
    05:00 +11°C° 0 mm 0 m/S 585 mmHg 81%
    06:00 +12°C° 0 mm 0 m/S 586 mmHg 73%
    07:00 +14°C° 0 mm 0 m/S 587 mmHg 65%
    08:00 +18°C° 0 mm 1 m/S 589 mmHg 58%
    09:00 +19°C° 0 mm 1 m/S 589 mmHg 55%
    10:00 +20°C° 0 mm 1 m/S 589 mmHg 52%
    11:00 +20°C° 0 mm 2 m/S 589 mmHg 49%
    12:00 +20°C° 0 mm 2 m/S 588 mmHg 51%
    13:00 +20°C° 0 mm 2 m/S 588 mmHg 54%
    14:00 +20°C° 0 mm 2 m/S 587 mmHg 57%
    15:00 +18°C° 0 mm 2 m/S 587 mmHg 68%
    16:00 +17°C° 0 mm 2 m/S 586 mmHg 78%
    17:00 +15°C° 0 mm 1 m/S 586 mmHg 89%
    18:00 +15°C° 0 mm 1 m/S 586 mmHg 91%
    19:00 +14°C° 0 mm 1 m/S 586 mmHg 92%
    20:00 +13°C° 0 mm 1 m/S 586 mmHg 94%
    21:00 +13°C° 0 mm 1 m/S 586 mmHg 91%
    22:00 +13°C° 0 mm 1 m/S 586 mmHg 88%
    23:00 +13°C° 0 mm 1 m/S 586 mmHg 85%

    20 November, Mittwoch

    Zeit Temperatur Niederschläge Wind Luftdruck Luftfeuchtigkeit
    00:00 +13°C° 0 mm 1 m/S 586 mmHg 86%
    01:00 +13°C° 0 mm 1 m/S 585 mmHg 87%
    02:00 +13°C° 0 mm 1 m/S 585 mmHg 88%
    03:00 +13°C° 0 mm 1 m/S 585 mmHg 88%
    04:00 +13°C° 0 mm 1 m/S 585 mmHg 88%
    05:00 +13°C° 0 mm 1 m/S 585 mmHg 88%
    06:00 +15°C° 0 mm 1 m/S 587 mmHg 81%
    07:00 +16°C° 0 mm 1 m/S 588 mmHg 74%
    08:00 +19°C° 0 mm 1 m/S 589 mmHg 66%
    09:00 +21°C° 0 mm 1 m/S 589 mmHg 59%
    10:00 +22°C° 0 mm 1 m/S 589 mmHg 52%
    11:00 +24°C° 0 mm 2 m/S 590 mmHg 45%
    12:00 +24°C° 0 mm 2 m/S 589 mmHg 47%
    13:00 +24°C° 0 mm 2 m/S 589 mmHg 48%
    14:00 +24°C° 0 mm 2 m/S 588 mmHg 50%
    15:00 +21°C° 0.1 mm 2 m/S 587 mmHg 60%
    16:00 +19°C° 0.1 mm 2 m/S 587 mmHg 70%
    17:00 +18°C° 0.1 mm 1 m/S 586 mmHg 81%
    18:00 +16°C° 0 mm 1 m/S 586 mmHg 78%
    19:00 +16°C° 0 mm 1 m/S 586 mmHg 75%
    20:00 +15°C° 0 mm 1 m/S 587 mmHg 73%
    21:00 +15°C° 0 mm 1 m/S 586 mmHg 70%
    22:00 +15°C° 0 mm 1 m/S 586 mmHg 68%
    23:00 +15°C° 0 mm 1 m/S 586 mmHg 65%

    21 November, Donnerstag

    Zeit Temperatur Niederschläge Wind Luftdruck Luftfeuchtigkeit
    00:00 +15°C° 0 mm 1 m/S 586 mmHg 66%
    01:00 +14°C° 0 mm 1 m/S 586 mmHg 66%
    02:00 +14°C° 0 mm 1 m/S 586 mmHg 66%
    03:00 +14°C° 0 mm 1 m/S 586 mmHg 67%
    04:00 +14°C° 0 mm 1 m/S 586 mmHg 68%
    05:00 +14°C° 0 mm 1 m/S 586 mmHg 69%
    06:00 +15°C° 0 mm 1 m/S 587 mmHg 65%
    07:00 +18°C° 0 mm 1 m/S 588 mmHg 61%
    08:00 +20°C° 0 mm 1 m/S 589 mmHg 57%
    09:00 +21°C° 0 mm 1 m/S 590 mmHg 52%
    10:00 +23°C° 0 mm 1 m/S 590 mmHg 46%
    11:00 +24°C° 0 mm 2 m/S 590 mmHg 41%
    12:00 +24°C° 0 mm 2 m/S 589 mmHg 43%
    13:00 +24°C° 0 mm 2 m/S 589 mmHg 45%
    14:00 +24°C° 0 mm 2 m/S 588 mmHg 48%
    15:00 +21°C° 0 mm 2 m/S 587 mmHg 58%
    16:00 +20°C° 0 mm 1 m/S 587 mmHg 68%
    17:00 +18°C° 0 mm 1 m/S 586 mmHg 79%
    18:00 +18°C° 0 mm 1 m/S 586 mmHg 78%
    19:00 +16°C° 0 mm 1 m/S 586 mmHg 77%
    20:00 +16°C° 0 mm 1 m/S 587 mmHg 76%
    21:00 +16°C° 0 mm 1 m/S 586 mmHg 73%
    22:00 +15°C° 0 mm 1 m/S 586 mmHg 71%
    23:00 +15°C° 0 mm 1 m/S 586 mmHg 69%

    22 November, Freitag

    Zeit Temperatur Niederschläge Wind Luftdruck Luftfeuchtigkeit
    00:00 +15°C° 0 mm 1 m/S 586 mmHg 69%
    01:00 +15°C° 0 mm 1 m/S 585 mmHg 70%
    02:00 +14°C° 0 mm 1 m/S 585 mmHg 70%
    03:00 +14°C° 0 mm 1 m/S 585 mmHg 73%
    04:00 +14°C° 0 mm 1 m/S 585 mmHg 75%
    05:00 +14°C° 0 mm 1 m/S 585 mmHg 77%
    06:00 +16°C° 0 mm 1 m/S 586 mmHg 71%
    07:00 +19°C° 0 mm 1 m/S 588 mmHg 66%
    08:00 +20°C° 0 mm 1 m/S 589 mmHg 61%
    09:00 +22°C° 0 mm 1 m/S 589 mmHg 56%
    10:00 +23°C° 0 mm 2 m/S 589 mmHg 52%
    11:00 +24°C° 0 mm 2 m/S 589 mmHg 48%
    12:00 +24°C° 0.4 mm 2 m/S 589 mmHg 51%
    13:00 +23°C° 0.4 mm 2 m/S 588 mmHg 55%
    14:00 +23°C° 0.4 mm 2 m/S 587 mmHg 59%
    15:00 +20°C° 0.4 mm 2 m/S 586 mmHg 66%
    16:00 +19°C° 0.4 mm 1 m/S 586 mmHg 74%
    17:00 +18°C° 0.4 mm 1 m/S 585 mmHg 81%
    18:00 +16°C° 0 mm 1 m/S 586 mmHg 81%
    19:00 +16°C° 0 mm 1 m/S 586 mmHg 81%
    20:00 +15°C° 0 mm 1 m/S 586 mmHg 81%
    21:00 +15°C° 0 mm 1 m/S 586 mmHg 80%
    22:00 +14°C° 0 mm 1 m/S 586 mmHg 80%
    23:00 +14°C° 0 mm 1 m/S 586 mmHg 80%
    Mehr zeigen